Location: Newark
(39.9500°N, 8.6833°E)
Time: 14:52:39
(UTC+00:00)

NO-84 - Pass Details

Date: 22 February 2020
Orbit: 328 x 491 km, 55.0° (Epoch: 01 April)

Event Time Altitude Azimuth Distance (km) Brightness Sun altitude
Exits shadow 05:04:35 - 331° (NNW) 1,992 ? -13.2°
Reaches altitude 10° 05:05:40 10° 341° (NNW) 1,659 ? -13.0°
Maximum altitude 05:08:20 18° 26° (NNE) 1,211 ? -12.5°
Drops below altitude 10° 05:10:55 10° 72° (ENE) 1,602 ? -12.0°
Sets 05:13:29 0° 92° (E) 2,439 ? -11.5°
